Find Kosmos-409

NORAD ID: 5180 Int'l Des: 1971-038 Owner: OKB10 Country: SU operational
LEOCIRCULAR

Live-Position

3D-Globus wird geladen...

Über Kosmos-409

Beschreibung wird geladen...

Nächste Überflüge

Passes for default location (London). Set your location on the main map for personalized predictions.

Höhenverlauf

Loading altitude history...

Zweizeiliger Elementsatz

1 5180U 71038A 26129.29792002 .00000030 00000-0 12619-3 0 9999
2 5180 74.0017 72.0673 0023194 327.0559 146.6572 13.17844476647126
Epoch: 9. Mai 2026 • Age: 13 hours

Aktueller Status

Höhe 1212.4 km
Geschwindigkeit 7.25 km/s
Subsatellitenpunkt -42.43°S, 91.73°E
Typ other

Most Searched